Location: Drocourt
(49.0571°N, 1.7669°E)
Time: 13:48:19
(UTC+00:00)

Vanguard 2 Rocket - Pass Details

Date: 16 April 2024
Orbit: 556 x 3304 km, 32.9° (Epoch: 22 May)

Event Time Altitude Azimuth Distance (km) Brightness Sun altitude
Rises 19:15:54 0° 179° (S) 6,322 11.0 -5.2°
Reaches altitude 10° 19:22:57 10° 159° (SSE) 5,780 10.6 -6.3°
Maximum altitude 19:31:20 15° 132° (SE) 5,706 10.3 -7.5°
Drops below altitude 10° 19:40:15 10° 105° (ESE) 6,261 10.5 -8.9°
Sets 19:48:25 0° 86° (E) 7,171 11.0 -10.0°
